Flag for Spain Weather past 2 weeks in Barcelona, Barcelona, Spain

Now
61 °F

Passing clouds.


Feels Like: 61 °F
Forecast: 60 / 80 °F
Wind: 5 mph from Northwest

Location: Barcelona Airport

Current Time: May 7, 2015 at 2:45:30 AM

Latest Report: May 7, 2015 at 1:30 AM


Visibility: N/A

Pressure: 30.12 "Hg

Humidity: 72%

Dew point: 52 °F

Location of BarcelonaLocation

Historic Weather in Barcelona — Graph

°F

Barcelona temperature yesterday

Maximum temperature yesterday: 72 °F (at 10:30 AM)
Minimum temperature yesterday: 59 °F (at 6:30 AM)
Average temperature yesterday: 66 °F

Past Weeks' High & Low Weather Summary

 TemperatureHumidityPressure
High82 °F (May 5, 11:30 AM)100% (Apr 26, 5:30 AM)30.27 "Hg (Apr 26, 5:30 AM)
Low52 °F (Apr 23, 4:30 AM)30% (May 5, 12:00 PM)29.59 "Hg (Apr 27, 3:30 AM)
Average63 °F76%29.94 "Hg
* Reported Apr 22 1:00 AM — May 7 1:30 AM, Barcelona, Weather by CustomWeather, © 2015

Note: Actual official high and low records may vary slightly from our data, if they occured in-between our weather recording intervals... More about our weather records

Advertising

Barcelona weather history for previous 24 hours

 ConditionsComfort  
Time TempWeatherWind HumidityBarometerVisibility
1:30 AM
Thu, May 7
61 °FPassing clouds.5 mph72%30.12 "HgN/A
1:00 AM61 °FPassing clouds.3 mph72%30.12 "HgN/A
12:30 AM63 °FPassing clouds.1 mph68%30.12 "HgN/A
12:00 AM63 °FPassing clouds.1 mph73%30.12 "HgN/A
11:00 PM
Wed, May 6
64 °FPassing clouds.1 mph73%30.12 "HgN/A
10:30 PM66 °FPassing clouds.No wind64%30.09 "HgN/A
10:00 PM64 °FPassing clouds.2 mph73%30.09 "HgN/A
9:30 PM64 °FPassing clouds.1 mph73%30.09 "HgN/A
9:00 PM66 °FPassing clouds.2 mph68%30.07 "HgN/A
8:30 PM66 °FPassing clouds.3 mph68%30.07 "HgN/A
8:00 PM68 °FPassing clouds.3 mph64%30.07 "HgN/A
7:30 PM68 °FPassing clouds.6 mph69%30.07 "HgN/A
7:00 PM68 °FPassing clouds.6 mph69%30.07 "HgN/A
6:30 PM68 °FPassing clouds.8 mph73%30.04 "HgN/A
6:00 PM70 °FPassing clouds.9 mph69%30.04 "HgN/A
5:30 PM70 °FPassing clouds.9 mph64%30.04 "HgN/A
5:00 PM70 °FPassing clouds.10 mph73%30.04 "HgN/A
4:30 PM70 °FPassing clouds.10 mph69%30.04 "HgN/A
4:00 PM72 °FPassing clouds.12 mph65%30.04 "HgN/A
3:30 PM72 °FPassing clouds.13 mph65%30.04 "HgN/A
3:00 PM72 °FPassing clouds.15 mph65%30.04 "HgN/A
2:30 PM72 °FPassing clouds.14 mph61%30.01 "HgN/A
2:00 PM72 °FPassing clouds.13 mph57%30.01 "HgN/A
1:30 PM72 °FPassing clouds.13 mph57%30.01 "HgN/A
1:00 PM72 °FPassing clouds.12 mph61%30.01 "HgN/A
12:00 PM72 °FPassing clouds.8 mph57%30.01 "HgN/A
11:30 AM72 °FPassing clouds.9 mph57%30.01 "HgN/A
11:00 AM70 °FPassing clouds.8 mph60%30.01 "HgN/A
10:30 AM72 °FSunny.3 mph57%30.01 "Hg10 mi
10:00 AM68 °FPassing clouds.8 mph64%30.01 "HgN/A
9:30 AM66 °FPassing clouds.8 mph64%30.01 "HgN/A
9:00 AM64 °FPassing clouds.9 mph68%29.98 "HgN/A
8:30 AM63 °FPassing clouds.8 mph73%29.98 "HgN/A
8:00 AM61 °FSunny.10 mph77%29.98 "Hg10 mi
7:30 AM59 °FClear.10 mph82%29.98 "Hg10 mi
7:00 AM59 °FPassing clouds.10 mph82%29.98 "Hg6 mi
6:30 AM59 °FPassing clouds.8 mph88%29.95 "Hg6 mi
6:00 AM61 °FPassing clouds.9 mph83%29.95 "Hg5 mi
5:00 AM61 °FClear.7 mph83%29.95 "Hg5 mi
4:30 AM61 °FClear.9 mph83%29.95 "Hg6 mi
4:00 AM61 °FPassing clouds.8 mph83%29.95 "HgN/A
3:30 AM61 °FPassing clouds.7 mph83%29.95 "HgN/A
3:00 AM61 °FPassing clouds.7 mph83%29.95 "HgN/A
2:30 AM63 °FPassing clouds.5 mph83%29.95 "Hg6 mi
2:00 AM63 °FPassing clouds.7 mph83%29.95 "Hg6 mi
Weather by CustomWeather, © 2015

See weather overviewHow to use our weather pages